Change the Weather History Date:

Sunday, January 28, 2007

  Actual Average Record
Temperature  
Mean Temperature 52 °F 51 °F  
Max Temperature 56 °F 57 °F 69 °F (1984)
Min Temperature 47 °F 45 °F 33 °F (1975)
Degree Days  
Heating Degree Days 13 14  
Month to date heating degree days 479 413  
Since 1 July heating degree days 1539 1423  
Cooling Degree Days 0 0  
Month to date cooling degree days 0 0  
Year to date cooling degree days 0 0  
Growing Degree Days 2 (Base 50)    
Moisture  
Dew Point 46 °F    
Average Humidity 83    
Maximum Humidity 93    
Minimum Humidity 72    
Precipitation  
Precipitation 0.09 in 0.13 in 1.04 in (1981)
Month to date precipitation 0.65 3.78  
Year to date precipitation 0.65 3.78  
Since 1 July precipitation 5.99 11.35  
Snow  
Snow 0.00 in - 0.00 in ()
Month to date snowfall 0.0  
Since 1 July snowfall 0.0  
Snow Depth 0.00 in    
Sea Level Pressure  
Sea Level Pressure 30.08 in    
Wind  
Wind Speed 3 mph (North)    
Max Wind Speed 10 mph    
Max Gust Speed 12 mph    
Visibility 5 miles    
Events Rain    
T = Trace of Precipitation, MM = Missing Value Source: NWS Daily Summary

Daily Weather History Graph

Daily Weather History Graph

Search for Another Location

Airport or City:

Trip Planner

Search our weather history database for the weather conditions in past years. The results will help you decide how hot, cold, wet, or windy it might be!

Date:

Astronomy

Jan. 28, 2007 Rise Set
Actual Time 7:16 AM PST 5:28 PM PST
Civil Twilight 6:48 AM PST 5:56 PM PST
Nautical Twilight 6:17 AM PST 6:28 PM PST
Astronomical Twilight 5:46 AM PST 6:59 PM PST
Moon 12:59 PM PST (1/28) 3:45 AM PST (1/28)
Length of Visible Light 11h 07m
Length of Day
10h 12m
Waxing Gibbous, 80% of the Moon is Illuminated
Jan 28
Waxing Gibbous
Feb 1
Full
Feb 10
Last Quarter
Feb 17
New
Feb 23
First Quarter

Hourly Weather History & Observations

Time (PST) Temp. Dew Point Humidity Pressure Visibility Wind Dir Wind Speed Gust Speed Precip Events Conditions
12:56 AM 48.9 °F 46.9 °F 93% 30.04 in 4.0 mi Calm Calm - N/A   Overcast
1:56 AM 48.9 °F 46.9 °F 93% 30.05 in 3.0 mi Calm Calm - N/A   Overcast
2:25 AM 48.2 °F 46.4 °F 93% 30.06 in 3.0 mi NE 5.8 mph - N/A   Overcast
2:56 AM 48.9 °F 46.0 °F 90% 30.06 in 4.0 mi North 6.9 mph - 0.00 in Rain Light Rain
3:56 AM 48.0 °F 46.0 °F 93% 30.06 in 3.0 mi North 6.9 mph - 0.00 in Rain Light Rain
4:56 AM 48.0 °F 46.0 °F 93% 30.07 in 3.0 mi North 6.9 mph - 0.08 in Rain Light Rain
5:19 AM 48.2 °F 46.4 °F 93% 30.06 in 3.0 mi North 5.8 mph - 0.00 in Rain Light Rain
5:43 AM 48.2 °F 46.4 °F 93% 30.06 in 3.0 mi North 3.5 mph - 0.00 in Rain Light Rain
5:56 AM 48.0 °F 46.0 °F 93% 30.06 in 4.0 mi Calm Calm - 0.00 in Rain Light Rain
6:56 AM 48.9 °F 46.0 °F 90% 30.07 in 6.0 mi Calm Calm - 0.01 in   Mostly Cloudy
7:56 AM 48.0 °F 46.0 °F 93% 30.08 in 4.0 mi Calm Calm - N/A   Mostly Cloudy
8:44 AM 48.2 °F 46.4 °F 93% 30.09 in 4.0 mi North 8.1 mph - N/A   Overcast
8:56 AM 48.9 °F 46.0 °F 90% 30.09 in 5.0 mi North 6.9 mph - N/A   Overcast
9:50 AM 50.0 °F 46.4 °F 87% 30.11 in 5.0 mi North 4.6 mph - N/A   Mostly Cloudy
9:56 AM 50.0 °F 46.9 °F 89% 30.12 in 5.0 mi North 4.6 mph - N/A   Mostly Cloudy
10:56 AM 52.0 °F 48.0 °F 86% 30.12 in 6.0 mi Calm Calm - N/A   Mostly Cloudy
11:56 AM 53.1 °F 46.9 °F 80% 30.10 in 7.0 mi NNE 3.5 mph - N/A   Scattered Clouds
12:56 PM 52.0 °F 48.0 °F 86% 30.08 in 8.0 mi North 3.5 mph - N/A   Scattered Clouds
1:56 PM 54.0 °F 46.9 °F 77% 30.07 in 8.0 mi North 5.8 mph - N/A   Scattered Clouds
2:56 PM 54.0 °F 46.0 °F 75% 30.07 in 7.0 mi North 4.6 mph - N/A   Scattered Clouds
3:56 PM 55.0 °F 46.9 °F 74% 30.07 in 6.0 mi Calm Calm - N/A   Haze
4:56 PM 54.0 °F 48.0 °F 80% 30.07 in 6.0 mi North 8.1 mph - N/A   Haze
5:56 PM 53.1 °F 46.0 °F 77% 30.08 in 9.0 mi NNE 4.6 mph - N/A   Partly Cloudy
6:56 PM 52.0 °F 46.0 °F 80% 30.09 in 8.0 mi NNE 9.2 mph - N/A   Partly Cloudy
7:56 PM 50.0 °F 46.0 °F 86% 30.10 in 7.0 mi Calm Calm - N/A   Partly Cloudy
8:56 PM 50.0 °F 46.0 °F 86% 30.11 in 6.0 mi Calm Calm - N/A   Partly Cloudy
9:56 PM 50.0 °F 45.0 °F 83% 30.11 in 7.0 mi Calm Calm - N/A   Partly Cloudy
10:56 PM 48.9 °F 44.1 °F 83% 30.11 in 7.0 mi Calm Calm - N/A   Clear
11:56 PM 46.4 °F 42.8 °F 87% 30.12 in 6.0 mi Calm Calm - N/A   Partly Cloudy